Location: Atlantic Beach
(40.5890°N, 73.7290°W)
Time: 04:27:46
(UTC+00:00)

CZ-4 R/B - Pass Details

Date: 29 October 2020
Orbit: 531 x 599 km, 97.7° (Epoch: 23 November)

Event Time Altitude Azimuth Distance (km) Brightness Sun altitude
Rises 23:45:23 0° 176° (S) 2,700 4.8 -21.6°
Reaches altitude 10° 23:47:33 10° 181° (S) 1,802 3.9 -22.0°
Maximum altitude 23:51:22 55° 259° (W) 652 1.9 -22.7°
Drops below altitude 10° 23:55:10 10° 338° (NNW) 1,794 4.2 -23.4°
Sets 23:57:18 0° 343° (NNW) 2,686 5.1 -23.8°
